Weather History for Bishop, CA

Change the Weather History Date:

Monday, August 5, 2013

  Actual Average Record
Temperature  
Mean Temperature 24 °C 25 °C  
Max Temperature 37 °C 37 °C 40 °C (1987)
Min Temperature 12 °C 13 °C 6 °C (1950)
Degree Days  
Heating Degree Days 0 0  
Month to date heating degree days 0 0  
Since 1 June heating degree days 0 20  
Since 1 July heating degree days 0 1  
Cooling Degree Days 11 12  
Month to date cooling degree days 44 60  
Year to date cooling degree days 915 724  
Since 1 June cooling degree days 829 656  
Growing Degree Days 26 (Base 50)    
Moisture  
Dew Point -6 °C    
Average Humidity 18    
Maximum Humidity 32    
Minimum Humidity 4    
Precipitation  
Precipitation 0.00 mm 0.00 mm 0.41 mm (2005)
Month to date precipitation 0.00 0.02  
Year to date precipitation 0.95 3.26  
Snow  
Snow 0.00 cm 0.00 cm - ()
Month to date snowfall 0.0 0.0  
Since 1 June snowfall 0.0 0.0  
Since 1 July snowfall 0.0 0.0  
Snow Depth 0.00 cm    
Sea Level Pressure  
Sea Level Pressure 1011 hPa    
Wind  
Wind Speed 14 km/h (South)    
Max Wind Speed 35 km/h    
Max Gust Speed 45 km/h    
Visibility 16 kilometers    
Events      
T = Trace of Precipitation, MM = Missing Value Source: NWS Daily Summary

Daily Weather History Graph

Daily Weather History Graph

Search for Another Location

Airport:

Trip Planner

Search our weather history database for the weather conditions in past years. The results will help you decide how hot, cold, wet, or windy it might be!

Date:

Astronomy

Aug. 05, 2013 Rise Set
Actual Time 6:01 AM PDT 7:56 PM PDT
Civil Twilight 5:32 AM PDT 8:25 PM PDT
Nautical Twilight 4:58 AM PDT 8:59 PM PDT
Astronomical Twilight 4:20 AM PDT 9:36 PM PDT
Moon 5:00 AM PDT (8/5) 7:00 PM PDT (8/5)
Length of Visible Light 14h 52m
Length of Day
13h 55m
Waning Crescent, 1% of the Moon is Illuminated
Aug 5
Waning Crescent
Aug 6
New
Aug 14
First Quarter
Aug 20
Full
Aug 28
Last Quarter

Hourly Weather History & Observations

Time (PDT) Temp. Dew Point Humidity Pressure Visibility Wind Dir Wind Speed Gust Speed Precip Events Conditions
12:56 AM 20.6 °C -5.6 °C 17% 1011.7 hPa 16.1 km SSE 7.4 km/h / 2.1 m/s - N/A   Clear
1:56 AM 16.7 °C -4.4 °C 23% 1012.0 hPa 16.1 km NW 7.4 km/h / 2.1 m/s - N/A   Clear
2:56 AM 15.0 °C -4.4 °C 26% 1012.1 hPa 16.1 km NNW 9.3 km/h / 2.6 m/s - N/A   Clear
3:56 AM 13.9 °C -5.0 °C 27% 1012.3 hPa 16.1 km NW 13.0 km/h / 3.6 m/s - N/A   Clear
4:56 AM 11.7 °C -4.4 °C 32% 1012.7 hPa 16.1 km NW 9.3 km/h / 2.6 m/s - N/A   Clear
5:56 AM 12.2 °C -4.4 °C 31% 1013.2 hPa 16.1 km North 11.1 km/h / 3.1 m/s - N/A   Clear
6:56 AM 15.0 °C -3.9 °C 27% 1013.7 hPa 16.1 km North 9.3 km/h / 2.6 m/s - N/A   Clear
7:56 AM 20.0 °C -4.4 °C 19% 1013.6 hPa 16.1 km Calm Calm - N/A   Clear
8:56 AM 24.4 °C -4.4 °C 15% 1013.3 hPa 16.1 km North 5.6 km/h / 1.5 m/s - N/A   Clear
9:56 AM 27.8 °C -5.6 °C 11% 1012.8 hPa 16.1 km Calm Calm - N/A   Clear
10:56 AM 30.0 °C -5.6 °C 10% 1012.6 hPa 16.1 km Calm Calm - N/A   Clear
11:56 AM 32.8 °C -6.1 °C 8% 1011.2 hPa 16.1 km SW 11.1 km/h / 3.1 m/s - N/A   Clear
12:56 PM 33.9 °C -8.3 °C 6% 1010.7 hPa 16.1 km SSE 20.4 km/h / 5.7 m/s 31.5 km/h / 8.7 m/s N/A   Clear
1:56 PM 36.7 °C -8.9 °C 5% 1010.0 hPa 16.1 km SSE 22.2 km/h / 6.2 m/s 38.9 km/h / 10.8 m/s N/A   Clear
2:56 PM 35.6 °C -13.3 °C 4% 1009.4 hPa 16.1 km South 29.6 km/h / 8.2 m/s 40.7 km/h / 11.3 m/s N/A   Clear
3:56 PM 36.1 °C -12.2 °C 4% 1008.7 hPa 16.1 km SSE 31.5 km/h / 8.7 m/s 44.4 km/h / 12.3 m/s N/A   Clear
4:56 PM 35.0 °C -11.1 °C 5% 1008.6 hPa 16.1 km South 22.2 km/h / 6.2 m/s 37.0 km/h / 10.3 m/s N/A   Clear
5:56 PM 33.3 °C -9.4 °C 6% 1008.4 hPa 16.1 km SSE 29.6 km/h / 8.2 m/s - N/A   Clear
6:56 PM 31.7 °C -8.3 °C 7% 1008.3 hPa 16.1 km SSE 25.9 km/h / 7.2 m/s - N/A   Clear
7:56 PM 29.4 °C -5.6 °C 10% 1008.5 hPa 16.1 km SE 20.4 km/h / 5.7 m/s - N/A   Clear
8:56 PM 27.2 °C -5.0 °C 12% 1009.0 hPa 16.1 km SE 16.7 km/h / 4.6 m/s - N/A   Clear
9:56 PM 25.0 °C -4.4 °C 14% 1010.0 hPa 16.1 km SW 13.0 km/h / 3.6 m/s - N/A   Clear
10:56 PM 22.8 °C -3.9 °C 17% 1010.2 hPa 16.1 km South 9.3 km/h / 2.6 m/s - N/A   Clear
11:56 PM 21.7 °C -3.3 °C 19% 1010.3 hPa 16.1 km SSW 11.1 km/h / 3.1 m/s - N/A   Clear